Data supplied by UK-AIR on 1/5/2024
All Data GMT hour ending 
Status: R =Ratified P=Provisional,P*=As supplied
,,West Bromwich Kenrick Park,,,,,,,,,,,,,,,,,,,,,,,
Date,time,"Nitric oxide",status,unit,"Nitrogen dioxide",status,unit,"Nitrogen oxides as nitrogen dioxide",status,unit,"Ozone",status,unit
 
01-01-2023,01:00,0.51639,R,ugm-3,3.77883,R,ugm-3,4.57062,R,ugm-3,,,
01-01-2023,02:00,0.79806,R,ugm-3,3.41949,R,ugm-3,4.64317,R,ugm-3,,,
01-01-2023,03:00,0.52813,R,ugm-3,3.32554,R,ugm-3,4.13532,R,ugm-3,,,
01-01-2023,04:00,0.28167,R,ugm-3,2.77843,R,ugm-3,3.21031,R,ugm-3,,,
01-01-2023,05:00,0.31688,R,ugm-3,1.36414,R,ugm-3,1.85001,R,ugm-3,,,
01-01-2023,06:00,0.35208,R,ugm-3,1.52780,R,ugm-3,2.06766,R,ugm-3,,,
01-01-2023,07:00,0.31688,R,ugm-3,1.96267,R,ugm-3,2.44855,R,ugm-3,,,
01-01-2023,08:00,0.66896,R,ugm-3,1.91253,R,ugm-3,2.93825,R,ugm-3,,,
01-01-2023,09:00,0.42250,R,ugm-3,3.37867,R,ugm-3,4.02650,R,ugm-3,,,
01-01-2023,10:00,1.09146,R,ugm-3,4.52943,R,ugm-3,6.20298,R,ugm-3,,,
01-01-2023,11:00,1.40834,R,ugm-3,4.69650,R,ugm-3,6.85592,R,ugm-3,,,
01-01-2023,12:00,1.72521,R,ugm-3,6.11505,R,ugm-3,8.76035,R,ugm-3,,,
01-01-2023,13:00,1.65480,R,ugm-3,7.85539,R,ugm-3,10.39271,R,ugm-3,,,
01-01-2023,14:00,1.97167,R,ugm-3,7.80482,R,ugm-3,10.82801,R,ugm-3,,,
01-01-2023,15:00,1.83084,R,ugm-3,10.30607,R,ugm-3,13.11331,R,ugm-3,,,
01-01-2023,16:00,1.86605,R,ugm-3,13.29916,R,ugm-3,16.16039,R,ugm-3,,,
01-01-2023,17:00,1.65480,R,ugm-3,14.38484,R,ugm-3,16.92216,R,ugm-3,,,
01-01-2023,18:00,1.61959,R,ugm-3,16.01677,R,ugm-3,18.50011,R,ugm-3,,,
01-01-2023,19:00,2.14772,R,ugm-3,13.30257,R,ugm-3,16.59569,R,ugm-3,,,
01-01-2023,20:00,1.26751,R,ugm-3,10.24483,R,ugm-3,12.18831,R,ugm-3,,,
01-01-2023,21:00,0.98584,R,ugm-3,9.31641,R,ugm-3,10.82801,R,ugm-3,,,
01-01-2023,22:00,1.05625,R,ugm-3,9.75256,R,ugm-3,11.37213,R,ugm-3,,,
01-01-2023,23:00,0.73938,R,ugm-3,8.44283,R,ugm-3,9.57653,R,ugm-3,,,
01-01-2023,24:00,0.42250,R,ugm-3,7.73164,R,ugm-3,8.37946,R,ugm-3,,,
02-01-2023,01:00,0.32868,R,ugm-3,7.04325,R,ugm-3,7.54722,R,ugm-3,,,
02-01-2023,02:00,0.32868,R,ugm-3,5.22902,R,ugm-3,5.73298,R,ugm-3,,,
02-01-2023,03:00,0.28172,R,ugm-3,8.05865,R,ugm-3,8.49062,R,ugm-3,,,
02-01-2023,04:00,0.84517,R,ugm-3,6.26946,R,ugm-3,7.56536,R,ugm-3,,,
02-01-2023,05:00,0.59866,R,ugm-3,6.75628,R,ugm-3,7.67421,R,ugm-3,,,
02-01-2023,06:00,0.46954,R,ugm-3,8.78665,R,ugm-3,9.50659,R,ugm-3,,,
02-01-2023,07:00,0.49301,R,ugm-3,4.36020,R,ugm-3,5.11614,R,ugm-3,,,
02-01-2023,08:00,1.16210,R,ugm-3,19.28140,R,ugm-3,21.06327,R,ugm-3,,,
02-01-2023,09:00,6.51482,R,ugm-3,30.93988,R,ugm-3,40.92913,R,ugm-3,,,
02-01-2023,10:00,5.81052,R,ugm-3,35.55756,R,ugm-3,44.46689,R,ugm-3,,,
02-01-2023,11:00,6.76133,R,ugm-3,30.39863,R,ugm-3,40.76585,R,ugm-3,,,
02-01-2023,12:00,7.81778,R,ugm-3,29.92172,R,ugm-3,41.90882,R,ugm-3,,,
02-01-2023,13:00,7.99386,R,ugm-3,25.18872,R,ugm-3,37.44580,R,ugm-3,,,
02-01-2023,14:00,7.92343,R,ugm-3,24.53474,R,ugm-3,36.68383,R,ugm-3,,,
02-01-2023,15:00,7.32477,R,ugm-3,31.05865,R,ugm-3,42.28981,R,ugm-3,,,
02-01-2023,16:00,3.59196,R,ugm-3,28.07390,R,ugm-3,33.58148,R,ugm-3,,,
02-01-2023,17:00,8.24037,R,ugm-3,44.56777,R,ugm-3,57.20282,R,ugm-3,,,
02-01-2023,18:00,13.13529,R,ugm-3,59.32299,R,ugm-3,79.46348,R,ugm-3,,,
02-01-2023,19:00,6.09224,R,ugm-3,49.43990,R,ugm-3,58.78120,R,ugm-3,,,
02-01-2023,20:00,5.24707,R,ugm-3,46.38164,R,ugm-3,54.42704,R,ugm-3,,,
02-01-2023,21:00,4.78927,R,ugm-3,47.90000,R,ugm-3,55.24345,R,ugm-3,,,
02-01-2023,22:00,2.88765,R,ugm-3,44.28453,R,ugm-3,48.71220,R,ugm-3,,,
02-01-2023,23:00,1.30297,R,ugm-3,32.34561,R,ugm-3,34.34346,R,ugm-3,,,
02-01-2023,24:00,1.51426,R,ugm-3,29.51799,R,ugm-3,31.83982,R,ugm-3,,,
03-01-2023,01:00,1.64369,R,ugm-3,34.64544,R,ugm-3,37.16573,R,ugm-3,,,
03-01-2023,02:00,0.84533,R,ugm-3,20.33547,R,ugm-3,21.63162,R,ugm-3,,,
03-01-2023,03:00,0.63400,R,ugm-3,13.56390,R,ugm-3,14.53601,R,ugm-3,,,
03-01-2023,04:00,0.49311,R,ugm-3,7.30133,R,ugm-3,8.05741,R,ugm-3,,,
03-01-2023,05:00,0.56355,R,ugm-3,7.02999,R,ugm-3,7.89409,R,ugm-3,,,
03-01-2023,06:00,1.58499,R,ugm-3,7.96814,R,ugm-3,10.39842,R,ugm-3,,,
03-01-2023,07:00,2.67687,R,ugm-3,14.73245,R,ugm-3,18.83693,R,ugm-3,,,
03-01-2023,08:00,4.86064,R,ugm-3,18.95149,R,ugm-3,26.40437,R,ugm-3,,,
03-01-2023,09:00,4.57886,R,ugm-3,17.15142,R,ugm-3,24.17224,R,ugm-3,,,
03-01-2023,10:00,3.38131,R,ugm-3,14.36006,R,ugm-3,19.54468,R,ugm-3,,,
03-01-2023,11:00,2.74732,R,ugm-3,13.26338,R,ugm-3,17.47588,R,ugm-3,,,
03-01-2023,12:00,3.48698,R,ugm-3,15.72242,R,ugm-3,21.06905,R,ugm-3,,,
03-01-2023,13:00,3.45176,R,ugm-3,13.81652,R,ugm-3,19.10914,R,ugm-3,,,
03-01-2023,14:00,5.95252,R,ugm-3,14.28298,R,ugm-3,23.41006,R,ugm-3,,,
03-01-2023,15:00,3.06432,R,ugm-3,12.17846,R,ugm-3,16.87702,R,ugm-3,,,
03-01-2023,16:00,2.28943,R,ugm-3,11.89667,R,ugm-3,15.40708,R,ugm-3,,,
03-01-2023,17:00,3.94487,R,ugm-3,13.11487,R,ugm-3,19.16358,R,ugm-3,,,
03-01-2023,18:00,2.88821,R,ugm-3,12.66626,R,ugm-3,17.09479,R,ugm-3,,,
03-01-2023,19:00,1.47933,R,ugm-3,9.92674,R,ugm-3,12.19501,R,ugm-3,,,
03-01-2023,20:00,1.23277,R,ugm-3,9.27039,R,ugm-3,11.16061,R,ugm-3,,,
03-01-2023,21:00,1.37366,R,ugm-3,7.52999,R,ugm-3,9.63623,R,ugm-3,,,
03-01-2023,22:00,1.16233,R,ugm-3,5.40413,R,ugm-3,7.18634,R,ugm-3,,,
03-01-2023,23:00,1.02144,R,ugm-3,3.93246,R,ugm-3,5.49864,R,ugm-3,,,
03-01-2023,24:00,0.84533,R,ugm-3,3.60363,R,ugm-3,4.89978,R,ugm-3,,,
04-01-2023,01:00,0.70458,R,ugm-3,2.11447,R,ugm-3,3.19481,R,ugm-3,,,
04-01-2023,02:00,0.51669,R,ugm-3,1.74908,R,ugm-3,2.54132,R,ugm-3,,,
04-01-2023,03:00,0.59889,R,ugm-3,1.20554,R,ugm-3,2.12382,R,ugm-3,,,
04-01-2023,04:00,0.52843,R,ugm-3,1.85814,R,ugm-3,2.66839,R,ugm-3,,,
04-01-2023,05:00,0.70458,R,ugm-3,3.34883,R,ugm-3,4.42916,R,ugm-3,,,
04-01-2023,06:00,1.30347,R,ugm-3,10.58093,R,ugm-3,12.57955,R,ugm-3,,,
04-01-2023,07:00,1.97281,R,ugm-3,13.96563,R,ugm-3,16.99057,R,ugm-3,,,
04-01-2023,08:00,3.10014,R,ugm-3,17.35604,R,ugm-3,22.10952,R,ugm-3,,,
04-01-2023,09:00,3.52288,R,ugm-3,21.60897,R,ugm-3,27.01064,R,ugm-3,,,
04-01-2023,10:00,3.66380,R,ugm-3,18.56114,R,ugm-3,24.17888,R,ugm-3,,,
04-01-2023,11:00,4.05131,R,ugm-3,20.58089,R,ugm-3,26.79282,R,ugm-3,,,
04-01-2023,12:00,4.40360,R,ugm-3,22.65465,R,ugm-3,29.40675,R,ugm-3,,,
04-01-2023,13:00,4.08654,R,ugm-3,16.87826,R,ugm-3,23.14420,R,ugm-3,,,
04-01-2023,14:00,4.33314,R,ugm-3,16.17340,R,ugm-3,22.81746,R,ugm-3,,,
04-01-2023,15:00,3.91040,R,ugm-3,16.38594,R,ugm-3,22.38180,R,ugm-3,,,
04-01-2023,16:00,3.98086,R,ugm-3,14.86203,R,ugm-3,20.96592,R,ugm-3,,,
04-01-2023,17:00,3.91040,R,ugm-3,19.54445,R,ugm-3,25.54031,R,ugm-3,,,
04-01-2023,18:00,4.82635,R,ugm-3,20.10046,R,ugm-3,27.50076,R,ugm-3,,,
04-01-2023,19:00,3.27628,R,ugm-3,17.73944,R,ugm-3,22.76300,R,ugm-3,,,
04-01-2023,20:00,2.39556,R,ugm-3,14.29765,R,ugm-3,17.97079,R,ugm-3,,,
04-01-2023,21:00,1.65576,R,ugm-3,14.61515,R,ugm-3,17.15394,R,ugm-3,,,
04-01-2023,22:00,1.23301,R,ugm-3,12.75833,R,ugm-3,14.64892,R,ugm-3,,,
04-01-2023,23:00,1.51484,R,ugm-3,10.85586,R,ugm-3,13.17858,R,ugm-3,,,
04-01-2023,24:00,1.09209,R,ugm-3,5.89500,R,ugm-3,7.56951,R,ugm-3,,,
05-01-2023,01:00,0.42283,R,ugm-3,3.41891,R,ugm-3,4.06724,R,ugm-3,,,
05-01-2023,02:00,3.24168,R,ugm-3,43.98158,R,ugm-3,48.95208,R,ugm-3,,,
05-01-2023,03:00,1.26848,R,ugm-3,16.35758,R,ugm-3,18.30256,R,ugm-3,,,
05-01-2023,04:00,0.70471,R,ugm-3,6.70894,R,ugm-3,7.78948,R,ugm-3,,,
05-01-2023,05:00,0.63424,R,ugm-3,9.70400,R,ugm-3,10.67649,R,ugm-3,,,
05-01-2023,06:00,1.72654,R,ugm-3,15.32839,R,ugm-3,17.97573,R,ugm-3,,,
05-01-2023,07:00,3.55880,R,ugm-3,17.74828,R,ugm-3,23.20503,R,ugm-3,,,
05-01-2023,08:00,5.70817,R,ugm-3,29.59581,R,ugm-3,38.34821,R,ugm-3,,,
05-01-2023,09:00,5.95482,R,ugm-3,23.77043,R,ugm-3,32.90102,R,ugm-3,,,
05-01-2023,10:00,5.32058,R,ugm-3,23.92584,R,ugm-3,32.08395,R,ugm-3,,,
05-01-2023,11:00,4.89775,R,ugm-3,20.21642,R,ugm-3,27.72619,R,ugm-3,,,
05-01-2023,12:00,4.43969,R,ugm-3,17.54151,R,ugm-3,24.34894,R,ugm-3,,,
05-01-2023,13:00,3.69974,R,ugm-3,14.59069,R,ugm-3,20.26354,R,ugm-3,,,
05-01-2023,14:00,4.68633,R,ugm-3,14.49420,R,ugm-3,21.67981,R,ugm-3,,,
05-01-2023,15:00,3.87592,R,ugm-3,16.77179,R,ugm-3,22.71478,R,ugm-3,,,
05-01-2023,16:00,2.46649,R,ugm-3,14.62960,R,ugm-3,18.41150,R,ugm-3,,,
05-01-2023,17:00,2.85408,R,ugm-3,14.63449,R,ugm-3,19.01069,R,ugm-3,,,
05-01-2023,18:00,2.11414,R,ugm-3,14.95198,R,ugm-3,18.19361,R,ugm-3,,,
05-01-2023,19:00,2.21984,R,ugm-3,13.15574,R,ugm-3,16.55946,R,ugm-3,,,
05-01-2023,20:00,1.51513,R,ugm-3,9.49723,R,ugm-3,11.82040,R,ugm-3,,,
05-01-2023,21:00,1.02183,R,ugm-3,7.47555,R,ugm-3,9.04233,R,ugm-3,,,
05-01-2023,22:00,0.88089,R,ugm-3,5.02253,R,ugm-3,6.37321,R,ugm-3,,,
05-01-2023,23:00,0.63424,R,ugm-3,3.43974,R,ugm-3,4.41222,R,ugm-3,,,
05-01-2023,24:00,1.12754,R,ugm-3,3.11913,R,ugm-3,4.84800,R,ugm-3,,,
06-01-2023,01:00,0.42291,R,ugm-3,6.76176,R,ugm-3,7.41021,R,ugm-3,,,
06-01-2023,02:00,0.56388,R,ugm-3,3.27640,R,ugm-3,4.14100,R,ugm-3,,,
06-01-2023,03:00,0.42291,R,ugm-3,1.80346,R,ugm-3,2.45191,R,ugm-3,,,
06-01-2023,04:00,0.49339,R,ugm-3,2.78512,R,ugm-3,3.54164,R,ugm-3,,,
06-01-2023,05:00,0.84582,R,ugm-3,4.64216,R,ugm-3,5.93907,R,ugm-3,,,
06-01-2023,06:00,1.65639,R,ugm-3,9.77426,R,ugm-3,12.31403,R,ugm-3,,,
06-01-2023,07:00,3.13657,R,ugm-3,21.12639,R,ugm-3,25.93574,R,ugm-3,,,
06-01-2023,08:00,6.06169,R,ugm-3,36.09308,R,ugm-3,45.38754,R,ugm-3,,,
06-01-2023,09:00,6.48460,R,ugm-3,34.24592,R,ugm-3,44.18883,R,ugm-3,,,
06-01-2023,10:00,4.96918,R,ugm-3,25.01832,R,ugm-3,32.63762,R,ugm-3,,,
06-01-2023,11:00,28.96924,R,ugm-3,28.97490,R,ugm-3,73.39378,R,ugm-3,,,
06-01-2023,12:00,21.99125,R,ugm-3,22.40200,R,ugm-3,56.12145,R,ugm-3,,,
06-01-2023,13:00,4.40530,R,ugm-3,14.33171,R,ugm-3,21.08641,R,ugm-3,,,
06-01-2023,14:00,3.98239,R,ugm-3,13.07312,R,ugm-3,19.17937,R,ugm-3,,,
06-01-2023,15:00,4.12336,R,ugm-3,15.96272,R,ugm-3,22.28512,R,ugm-3,,,
06-01-2023,16:00,3.41851,R,ugm-3,20.96653,R,ugm-3,26.20817,R,ugm-3,,,
06-01-2023,17:00,2.81939,R,ugm-3,21.28581,R,ugm-3,25.60882,R,ugm-3,,,
06-01-2023,18:00,3.34803,R,ugm-3,18.40475,R,ugm-3,23.53832,R,ugm-3,,,
06-01-2023,19:00,2.25551,R,ugm-3,20.24337,R,ugm-3,23.70178,R,ugm-3,,,
06-01-2023,20:00,1.83260,R,ugm-3,11.08419,R,ugm-3,13.89414,R,ugm-3,,,
06-01-2023,21:00,1.16300,R,ugm-3,7.64299,R,ugm-3,9.42623,R,ugm-3,,,
06-01-2023,22:00,0.66961,R,ugm-3,5.62068,R,ugm-3,6.64740,R,ugm-3,,,
06-01-2023,23:00,0.74009,R,ugm-3,4.25941,R,ugm-3,5.39420,R,ugm-3,,,
06-01-2023,24:00,0.84582,R,ugm-3,3.22551,R,ugm-3,4.52241,R,ugm-3,,,
07-01-2023,01:00,0.46999,R,ugm-3,2.33146,R,ugm-3,3.05210,R,ugm-3,,,
07-01-2023,02:00,0.61099,R,ugm-3,1.60659,R,ugm-3,2.54342,R,ugm-3,,,
07-01-2023,03:00,0.63449,R,ugm-3,1.42522,R,ugm-3,2.39808,R,ugm-3,,,
07-01-2023,04:00,0.49349,R,ugm-3,1.31440,R,ugm-3,2.07107,R,ugm-3,,,
07-01-2023,05:00,0.63449,R,ugm-3,1.20721,R,ugm-3,2.18007,R,ugm-3,,,
07-01-2023,06:00,0.38774,R,ugm-3,1.58555,R,ugm-3,2.18007,R,ugm-3,,,
07-01-2023,07:00,0.66973,R,ugm-3,1.58918,R,ugm-3,2.61609,R,ugm-3,,,
07-01-2023,08:00,0.63449,R,ugm-3,2.40625,R,ugm-3,3.37911,R,ugm-3,,,
07-01-2023,09:00,1.30422,R,ugm-3,3.66841,R,ugm-3,5.66819,R,ugm-3,,,
07-01-2023,10:00,1.19847,R,ugm-3,5.46561,R,ugm-3,7.30324,R,ugm-3,,,
07-01-2023,11:00,1.48047,R,ugm-3,6.94079,R,ugm-3,9.21080,R,ugm-3,,,
07-01-2023,12:00,2.50269,R,ugm-3,9.07952,R,ugm-3,12.91693,R,ugm-3,,,
07-01-2023,13:00,2.32645,R,ugm-3,9.45876,R,ugm-3,13.02593,R,ugm-3,,,
07-01-2023,14:00,2.60844,R,ugm-3,11.31545,R,ugm-3,15.31500,R,ugm-3,,,
07-01-2023,15:00,2.74944,R,ugm-3,9.02819,R,ugm-3,13.24394,R,ugm-3,,,
07-01-2023,16:00,1.86821,R,ugm-3,11.03342,R,ugm-3,13.89796,R,ugm-3,,,
07-01-2023,17:00,2.11495,R,ugm-3,9.61954,R,ugm-3,12.86242,R,ugm-3,,,
07-01-2023,18:00,1.62146,R,ugm-3,9.28618,R,ugm-3,11.77239,R,ugm-3,,,
07-01-2023,19:00,1.26897,R,ugm-3,11.08020,R,ugm-3,13.02593,R,ugm-3,,,
07-01-2023,20:00,1.58621,R,ugm-3,7.59617,R,ugm-3,10.02833,R,ugm-3,,,
07-01-2023,21:00,1.05748,R,ugm-3,6.22682,R,ugm-3,7.84826,R,ugm-3,,,
07-01-2023,22:00,1.02223,R,ugm-3,6.11736,R,ugm-3,7.68475,R,ugm-3,,,
07-01-2023,23:00,0.95173,R,ugm-3,4.37240,R,ugm-3,5.83169,R,ugm-3,,,
07-01-2023,24:00,0.84598,R,ugm-3,3.49901,R,ugm-3,4.79616,R,ugm-3,,,
08-01-2023,01:00,0.32906,R,ugm-3,2.47570,R,ugm-3,2.98025,R,ugm-3,,,
08-01-2023,02:00,0.61110,R,ugm-3,1.89786,R,ugm-3,2.83487,R,ugm-3,,,
08-01-2023,03:00,0.59935,R,ugm-3,1.58878,R,ugm-3,2.50777,R,ugm-3,,,
08-01-2023,04:00,0.42307,R,ugm-3,1.64100,R,ugm-3,2.28970,R,ugm-3,,,
08-01-2023,05:00,0.56410,R,ugm-3,1.47929,R,ugm-3,2.34422,R,ugm-3,,,
08-01-2023,06:00,0.45833,R,ugm-3,1.47791,R,ugm-3,2.18067,R,ugm-3,,,
08-01-2023,07:00,0.84614,R,ugm-3,2.90039,R,ugm-3,4.19779,R,ugm-3,,,
08-01-2023,08:00,0.31730,R,ugm-3,3.54771,R,ugm-3,4.03424,R,ugm-3,,,
08-01-2023,09:00,0.42307,R,ugm-3,5.51169,R,ugm-3,6.16039,R,ugm-3,,,
08-01-2023,10:00,1.58652,R,ugm-3,8.25266,R,ugm-3,10.68528,R,ugm-3,,,
08-01-2023,11:00,1.83331,R,ugm-3,8.63748,R,ugm-3,11.44852,R,ugm-3,,,
08-01-2023,12:00,1.58652,R,ugm-3,8.41621,R,ugm-3,10.84883,R,ugm-3,,,
08-01-2023,13:00,3.06727,R,ugm-3,13.66906,R,ugm-3,18.37214,R,ugm-3,,,
08-01-2023,14:00,2.85573,R,ugm-3,15.68343,R,ugm-3,20.06216,R,ugm-3,,,
08-01-2023,15:00,2.32689,R,ugm-3,14.31364,R,ugm-3,17.88149,R,ugm-3,,,
08-01-2023,16:00,3.49034,R,ugm-3,20.16206,R,ugm-3,25.51384,R,ugm-3,,,
08-01-2023,17:00,2.60894,R,ugm-3,21.45900,R,ugm-3,25.45932,R,ugm-3,,,
08-01-2023,18:00,2.67945,R,ugm-3,16.98954,R,ugm-3,21.09798,R,ugm-3,,,
08-01-2023,19:00,3.34932,R,ugm-3,17.37987,R,ugm-3,22.51542,R,ugm-3,,,
08-01-2023,20:00,1.79805,R,ugm-3,15.56065,R,ugm-3,18.31763,R,ugm-3,,,
08-01-2023,21:00,2.00959,R,ugm-3,13.05563,R,ugm-3,16.13696,R,ugm-3,,,
08-01-2023,22:00,3.03201,R,ugm-3,14.81346,R,ugm-3,19.46248,R,ugm-3,,,
08-01-2023,23:00,0.74038,R,ugm-3,14.78366,R,ugm-3,15.91889,R,ugm-3,,,
08-01-2023,24:00,0.91665,R,ugm-3,13.04142,R,ugm-3,14.44694,R,ugm-3,,,
09-01-2023,01:00,0.61122,R,ugm-3,8.95122,R,ugm-3,9.88842,R,ugm-3,,,
09-01-2023,02:00,0.84631,R,ugm-3,5.60970,R,ugm-3,6.90735,R,ugm-3,,,
09-01-2023,03:00,0.66999,R,ugm-3,3.71695,R,ugm-3,4.74426,R,ugm-3,,,
09-01-2023,04:00,0.63473,R,ugm-3,6.17041,R,ugm-3,7.14365,R,ugm-3,,,
09-01-2023,05:00,0.74052,R,ugm-3,7.58963,R,ugm-3,8.72507,R,ugm-3,,,
09-01-2023,06:00,1.72788,R,ugm-3,13.21935,R,ugm-3,15.86872,R,ugm-3,,,
09-01-2023,07:00,3.98469,R,ugm-3,22.73749,R,ugm-3,28.84727,R,ugm-3,,,
09-01-2023,08:00,5.39520,R,ugm-3,30.82670,R,ugm-3,39.09923,R,ugm-3,,,
09-01-2023,09:00,13.57616,R,ugm-3,47.29361,R,ugm-3,68.11009,R,ugm-3,,,
09-01-2023,10:00,9.62673,R,ugm-3,39.33466,R,ugm-3,54.09544,R,ugm-3,,,
09-01-2023,11:00,7.12308,R,ugm-3,30.14047,R,ugm-3,41.06237,R,ugm-3,,,
09-01-2023,12:00,9.34463,R,ugm-3,27.77024,R,ugm-3,42.09847,R,ugm-3,,,
09-01-2023,13:00,6.27677,R,ugm-3,25.27604,R,ugm-3,34.90029,R,ugm-3,,,
09-01-2023,14:00,6.20624,R,ugm-3,20.63992,R,ugm-3,30.15603,R,ugm-3,,,
09-01-2023,15:00,7.44044,R,ugm-3,23.98256,R,ugm-3,35.39107,R,ugm-3,,,
09-01-2023,16:00,5.71256,R,ugm-3,24.99598,R,ugm-3,33.75512,R,ugm-3,,,
09-01-2023,17:00,4.01995,R,ugm-3,21.48373,R,ugm-3,27.64757,R,ugm-3,,,
09-01-2023,18:00,5.35994,R,ugm-3,29.08122,R,ugm-3,37.29968,R,ugm-3,,,
09-01-2023,19:00,3.45575,R,ugm-3,23.60306,R,ugm-3,28.90180,R,ugm-3,,,
09-01-2023,20:00,2.50366,R,ugm-3,17.42848,R,ugm-3,21.26736,R,ugm-3,,,
09-01-2023,21:00,2.46839,R,ugm-3,18.79131,R,ugm-3,22.57612,R,ugm-3,,,
09-01-2023,22:00,1.51630,R,ugm-3,17.08833,R,ugm-3,19.41329,R,ugm-3,,,
09-01-2023,23:00,1.33998,R,ugm-3,14.68662,R,ugm-3,16.74123,R,ugm-3,,,
09-01-2023,24:00,1.55156,R,ugm-3,16.37988,R,ugm-3,18.75890,R,ugm-3,,,
10-01-2023,01:00,0.70539,R,ugm-3,14.33694,R,ugm-3,15.41852,R,ugm-3,,,
10-01-2023,02:00,0.70539,R,ugm-3,6.99132,R,ugm-3,8.07290,R,ugm-3,,,
10-01-2023,03:00,0.84647,R,ugm-3,5.30224,R,ugm-3,6.60015,R,ugm-3,,,
10-01-2023,04:00,0.52904,R,ugm-3,3.55254,R,ugm-3,4.36373,R,ugm-3,,,
10-01-2023,05:00,0.77593,R,ugm-3,4.42856,R,ugm-3,5.61831,R,ugm-3,,,
10-01-2023,06:00,1.76348,R,ugm-3,8.20537,R,ugm-3,10.90933,R,ugm-3,,,
10-01-2023,07:00,2.43360,R,ugm-3,11.26886,R,ugm-3,15.00033,R,ugm-3,,,
10-01-2023,08:00,3.70330,R,ugm-3,17.23128,R,ugm-3,22.90959,R,ugm-3,,,
10-01-2023,09:00,3.98546,R,ugm-3,17.78048,R,ugm-3,23.89143,R,ugm-3,,,
10-01-2023,10:00,2.75102,R,ugm-3,12.69128,R,ugm-3,16.90946,R,ugm-3,,,
10-01-2023,11:00,2.92737,R,ugm-3,12.58453,R,ugm-3,17.07310,R,ugm-3,,,
10-01-2023,12:00,3.70330,R,ugm-3,11.55843,R,ugm-3,17.23674,R,ugm-3,,,
10-01-2023,13:00,3.63276,R,ugm-3,13.24844,R,ugm-3,18.81859,R,ugm-3,,,
10-01-2023,14:00,3.87965,R,ugm-3,14.12446,R,ugm-3,20.07317,R,ugm-3,,,
10-01-2023,15:00,3.59749,R,ugm-3,12.42977,R,ugm-3,17.94585,R,ugm-3,,,
10-01-2023,16:00,3.59749,R,ugm-3,11.72066,R,ugm-3,17.23674,R,ugm-3,,,
10-01-2023,17:00,3.31534,R,ugm-3,9.80779,R,ugm-3,14.89123,R,ugm-3,,,
10-01-2023,18:00,3.28007,R,ugm-3,12.20738,R,ugm-3,17.23674,R,ugm-3,,,
10-01-2023,19:00,2.60995,R,ugm-3,10.39845,R,ugm-3,14.40031,R,ugm-3,,,
10-01-2023,20:00,4.26761,R,ugm-3,16.63874,R,ugm-3,23.18233,R,ugm-3,,,
10-01-2023,21:00,1.93983,R,ugm-3,9.02591,R,ugm-3,12.00026,R,ugm-3,,,
10-01-2023,22:00,1.51659,R,ugm-3,6.51115,R,ugm-3,8.83656,R,ugm-3,,,
10-01-2023,23:00,1.34024,R,ugm-3,6.56336,R,ugm-3,8.61837,R,ugm-3,,,
10-01-2023,24:00,1.09336,R,ugm-3,7.92376,R,ugm-3,9.60021,R,ugm-3,,,
11-01-2023,01:00,0.84663,R,ugm-3,7.06796,R,ugm-3,8.36611,R,ugm-3,,,
11-01-2023,02:00,0.47035,R,ugm-3,5.38970,R,ugm-3,6.11090,R,ugm-3,,,
11-01-2023,03:00,0.38804,R,ugm-3,3.98819,R,ugm-3,4.58317,R,ugm-3,,,
11-01-2023,04:00,0.70553,R,ugm-3,2.79208,R,ugm-3,3.87387,R,ugm-3,,,
11-01-2023,05:00,1.09357,R,ugm-3,4.81605,R,ugm-3,6.49283,R,ugm-3,,,
11-01-2023,06:00,1.44633,R,ugm-3,7.54885,R,ugm-3,9.76653,R,ugm-3,,,
11-01-2023,07:00,3.59818,R,ugm-3,17.83523,R,ugm-3,23.35236,R,ugm-3,,,
11-01-2023,08:00,4.05678,R,ugm-3,16.58645,R,ugm-3,22.80675,R,ugm-3,,,
11-01-2023,09:00,5.22090,R,ugm-3,22.93117,R,ugm-3,30.93643,R,ugm-3,,,
11-01-2023,10:00,4.30371,R,ugm-3,17.73554,R,ugm-3,24.33447,R,ugm-3,,,
11-01-2023,11:00,4.19788,R,ugm-3,15.55166,R,ugm-3,21.98832,R,ugm-3,,,
11-01-2023,12:00,4.44482,R,ugm-3,15.71865,R,ugm-3,22.53394,R,ugm-3,,,
11-01-2023,13:00,5.85587,R,ugm-3,16.11946,R,ugm-3,25.09833,R,ugm-3,,,
11-01-2023,14:00,3.49236,R,ugm-3,16.96082,R,ugm-3,22.31569,R,ugm-3,,,
11-01-2023,15:00,4.83286,R,ugm-3,21.45281,R,ugm-3,28.86309,R,ugm-3,,,
11-01-2023,16:00,3.91567,R,ugm-3,21.49510,R,ugm-3,27.49905,R,ugm-3,,,
11-01-2023,17:00,3.84512,R,ugm-3,27.05944,R,ugm-3,32.95521,R,ugm-3,,,
11-01-2023,18:00,2.78683,R,ugm-3,24.86282,R,ugm-3,29.13589,R,ugm-3,,,
11-01-2023,19:00,2.01075,R,ugm-3,19.88733,R,ugm-3,22.97043,R,ugm-3,,,
11-01-2023,20:00,2.01075,R,ugm-3,17.97767,R,ugm-3,21.06078,R,ugm-3,,,
11-01-2023,21:00,2.08130,R,ugm-3,11.26754,R,ugm-3,14.45882,R,ugm-3,,,
11-01-2023,22:00,1.26995,R,ugm-3,7.38281,R,ugm-3,9.33003,R,ugm-3,,,
11-01-2023,23:00,0.70553,R,ugm-3,5.24735,R,ugm-3,6.32915,R,ugm-3,,,
11-01-2023,24:00,0.56442,R,ugm-3,3.17212,R,ugm-3,4.03756,R,ugm-3,,,
12-01-2023,01:00,0.65862,R,ugm-3,1.82812,R,ugm-3,2.83798,R,ugm-3,,,
12-01-2023,02:00,0.56453,R,ugm-3,1.46300,R,ugm-3,2.32860,R,ugm-3,,,
12-01-2023,03:00,0.42340,R,ugm-3,1.97047,R,ugm-3,2.61967,R,ugm-3,,,
12-01-2023,04:00,0.52925,R,ugm-3,1.64444,R,ugm-3,2.45595,R,ugm-3,,,
12-01-2023,05:00,0.77623,R,ugm-3,4.70407,R,ugm-3,5.89427,R,ugm-3,,,
12-01-2023,06:00,2.22284,R,ugm-3,13.29212,R,ugm-3,16.70042,R,ugm-3,,,
12-01-2023,07:00,3.17548,R,ugm-3,23.78369,R,ugm-3,28.65269,R,ugm-3,,,
12-01-2023,08:00,3.70473,R,ugm-3,28.86646,R,ugm-3,34.54695,R,ugm-3,,,
12-01-2023,09:00,5.25718,R,ugm-3,28.88742,R,ugm-3,36.94832,R,ugm-3,,,
12-01-2023,10:00,4.55152,R,ugm-3,26.64025,R,ugm-3,33.61915,R,ugm-3,,,
12-01-2023,11:00,3.21076,R,ugm-3,17.50786,R,ugm-3,22.43096,R,ugm-3,,,
12-01-2023,12:00,3.70473,R,ugm-3,16.04097,R,ugm-3,21.72147,R,ugm-3,,,
12-01-2023,13:00,2.71680,R,ugm-3,11.60692,R,ugm-3,15.77262,R,ugm-3,,,
12-01-2023,14:00,3.52831,R,ugm-3,15.11078,R,ugm-3,20.52078,R,ugm-3,,,
12-01-2023,15:00,4.09284,R,ugm-3,15.11841,R,ugm-3,21.39401,R,ugm-3,,,
12-01-2023,16:00,4.55152,R,ugm-3,20.41853,R,ugm-3,27.39743,R,ugm-3,,,
12-01-2023,17:00,3.10491,R,ugm-3,17.17897,R,ugm-3,21.93977,R,ugm-3,,,
12-01-2023,18:00,2.99906,R,ugm-3,16.79551,R,ugm-3,21.39401,R,ugm-3,,,
12-01-2023,19:00,2.18755,R,ugm-3,11.21774,R,ugm-3,14.57194,R,ugm-3,,,
12-01-2023,20:00,1.83472,R,ugm-3,9.68483,R,ugm-3,12.49803,R,ugm-3,,,
12-01-2023,21:00,1.55246,R,ugm-3,7.55253,R,ugm-3,9.93293,R,ugm-3,,,
12-01-2023,22:00,1.30548,R,ugm-3,5.14783,R,ugm-3,7.14953,R,ugm-3,,,
12-01-2023,23:00,1.05849,R,ugm-3,5.30822,R,ugm-3,6.93122,R,ugm-3,,,
12-01-2023,24:00,0.49396,R,ugm-3,2.46262,R,ugm-3,3.22002,R,ugm-3,,,
13-01-2023,01:00,0.47080,R,ugm-3,1.82597,R,ugm-3,2.54784,R,ugm-3,,,
13-01-2023,02:00,0.51788,R,ugm-3,1.68098,R,ugm-3,2.47505,R,ugm-3,,,
13-01-2023,03:00,0.31779,R,ugm-3,1.96958,R,ugm-3,2.45685,R,ugm-3,,,
13-01-2023,04:00,0.49434,R,ugm-3,2.51783,R,ugm-3,3.27580,R,ugm-3,,,
13-01-2023,05:00,0.81212,R,ugm-3,2.41274,R,ugm-3,3.65797,R,ugm-3,,,
13-01-2023,06:00,1.58893,R,ugm-3,5.75316,R,ugm-3,8.18949,R,ugm-3,,,
13-01-2023,07:00,4.30778,R,ugm-3,13.10420,R,ugm-3,19.70936,R,ugm-3,,,
13-01-2023,08:00,5.43768,R,ugm-3,20.32554,R,ugm-3,28.66320,R,ugm-3,,,
13-01-2023,09:00,5.96733,R,ugm-3,21.53350,R,ugm-3,30.68328,R,ugm-3,,,
13-01-2023,10:00,5.79078,R,ugm-3,20.93066,R,ugm-3,29.80973,R,ugm-3,,,
13-01-2023,11:00,5.57892,R,ugm-3,17.87052,R,ugm-3,26.42474,R,ugm-3,,,
13-01-2023,12:00,5.82609,R,ugm-3,13.99735,R,ugm-3,22.93056,R,ugm-3,,,
13-01-2023,13:00,4.94335,R,ugm-3,14.42273,R,ugm-3,22.00242,R,ugm-3,,,
13-01-2023,14:00,5.57892,R,ugm-3,16.28721,R,ugm-3,24.84144,R,ugm-3,,,
13-01-2023,15:00,4.76680,R,ugm-3,16.00375,R,ugm-3,23.31274,R,ugm-3,,,
13-01-2023,16:00,5.54361,R,ugm-3,21.09126,R,ugm-3,29.59134,R,ugm-3,,,
13-01-2023,17:00,4.55494,R,ugm-3,25.17324,R,ugm-3,32.15738,R,ugm-3,,,
13-01-2023,18:00,5.96733,R,ugm-3,31.19709,R,ugm-3,40.34687,R,ugm-3,,,
13-01-2023,19:00,3.31911,R,ugm-3,28.26928,R,ugm-3,33.35851,R,ugm-3,,,
13-01-2023,20:00,1.97734,R,ugm-3,16.67749,R,ugm-3,19.70936,R,ugm-3,,,
13-01-2023,21:00,2.18920,R,ugm-3,14.27797,R,ugm-3,17.63469,R,ugm-3,,,
13-01-2023,22:00,1.58893,R,ugm-3,13.61506,R,ugm-3,16.05139,R,ugm-3,,,
13-01-2023,23:00,1.34177,R,ugm-3,11.42801,R,ugm-3,13.48536,R,ugm-3,,,
13-01-2023,24:00,1.05929,R,ugm-3,7.22043,R,ugm-3,8.84465,R,ugm-3,,,
14-01-2023,01:00,0.89518,R,ugm-3,6.12809,R,ugm-3,7.50068,R,ugm-3,,,
14-01-2023,02:00,0.98941,R,ugm-3,3.50765,R,ugm-3,5.02473,R,ugm-3,,,
14-01-2023,03:00,0.53004,R,ugm-3,2.02734,R,ugm-3,2.84006,R,ugm-3,,,
14-01-2023,04:00,0.45937,R,ugm-3,1.97186,R,ugm-3,2.67621,R,ugm-3,,,
14-01-2023,05:00,0.63605,R,ugm-3,1.70095,R,ugm-3,2.67621,R,ugm-3,,,
14-01-2023,06:00,0.88340,R,ugm-3,2.25016,R,ugm-3,3.60470,R,ugm-3,,,
14-01-2023,07:00,0.77740,R,ugm-3,3.61427,R,ugm-3,4.80626,R,ugm-3,,,
14-01-2023,08:00,1.06009,R,ugm-3,5.20164,R,ugm-3,6.82708,R,ugm-3,,,
14-01-2023,09:00,2.15551,R,ugm-3,11.49604,R,ugm-3,14.80110,R,ugm-3,,,
14-01-2023,10:00,1.90815,R,ugm-3,13.07687,R,ugm-3,16.00266,R,ugm-3,,,
14-01-2023,11:00,5.58311,R,ugm-3,22.89851,R,ugm-3,31.45916,R,ugm-3,,,
14-01-2023,12:00,3.95765,R,ugm-3,20.85767,R,ugm-3,26.92599,R,ugm-3,,,
14-01-2023,13:00,2.04950,R,ugm-3,9.31007,R,ugm-3,12.45259,R,ugm-3,,,
14-01-2023,14:00,3.03891,R,ugm-3,13.58235,R,ugm-3,18.24195,R,ugm-3,,,
14-01-2023,15:00,2.47353,R,ugm-3,8.60527,R,ugm-3,12.39797,R,ugm-3,,,
14-01-2023,16:00,2.75622,R,ugm-3,12.21345,R,ugm-3,16.43960,R,ugm-3,,,
14-01-2023,17:00,3.21559,R,ugm-3,14.34916,R,ugm-3,19.27966,R,ugm-3,,,
14-01-2023,18:00,2.26152,R,ugm-3,12.09813,R,ugm-3,15.56573,R,ugm-3,,,
14-01-2023,19:00,2.22618,R,ugm-3,12.09769,R,ugm-3,15.51112,R,ugm-3,,,
14-01-2023,20:00,1.69614,R,ugm-3,9.96111,R,ugm-3,12.56182,R,ugm-3,,,
14-01-2023,21:00,1.02475,R,ugm-3,7.93203,R,ugm-3,9.50329,R,ugm-3,,,
14-01-2023,22:00,1.66080,R,ugm-3,6.46522,R,ugm-3,9.01174,R,ugm-3,,,
14-01-2023,23:00,0.53004,R,ugm-3,5.95974,R,ugm-3,6.77246,R,ugm-3,,,
14-01-2023,24:00,0.95408,R,ugm-3,4.54493,R,ugm-3,6.00783,R,ugm-3,,,
15-01-2023,01:00,1.46166,R,ugm-3,4.38807,R,ugm-3,6.62925,R,ugm-3,,,
15-01-2023,02:00,0.66010,R,ugm-3,2.04751,R,ugm-3,3.05965,R,ugm-3,,,
15-01-2023,03:00,0.49508,R,ugm-3,1.20781,R,ugm-3,1.96692,R,ugm-3,,,
15-01-2023,04:00,0.49508,R,ugm-3,1.48099,R,ugm-3,2.24010,R,ugm-3,,,
15-01-2023,05:00,0.67189,R,ugm-3,0.66352,R,ugm-3,1.69374,R,ugm-3,,,
15-01-2023,06:00,0.42435,R,ugm-3,1.09771,R,ugm-3,1.74837,R,ugm-3,,,